Regional Weather Roundup
Issued by NWS

Home | Current Version | Previous Version | Text Only | Print | Product List | Glossary On
Versions: 1 2 3 4 5 6 7 8 9 10 11 12 13 14 15 16 17 18 19 20 21 22 23 24 25 26 27 28 29 30 31 32 33 34 35 36 37 38 39 40 41 42 43 44 45 46 47 48 49 50
000
ASUS43 KMPX 221301
RWRMN
WEATHER ROUNDUP FOR MINNESOTA
NATIONAL WEATHER SERVICE TWIN CITIES/CHANHASSEN MN
700 AM CST SAT NOV 22 2014


NOTE: "FAIR" INDICATES FEW OR NO CLOUDS BELOW 12,000 FEET WITH NO
SIGNIFICANT WEATHER AND/OR OBSTRUCTIONS TO VISIBILITY. N/A MEANS
CURRENT SKY AND/OR WEATHER CONDITIONS ARE NOT AVAILABLE.

MNZ060>063-068>070-221400-
   Twin Cities Metro

CITY           SKY/WX    TMP DP  RH WIND       PRES   REMARKS
TWIN CITIES    CLOUDY    35  33  92 SW9       29.79S FOG     WCI  28
ST PAUL        CLOUDY    36  33  89 S9        29.80F FOG
CRYSTAL        CLOUDY    37  33  85 S12       29.76F FOG
BLAINE         CLOUDY    37  36  93 S12       29.76S
LAKEVILLE      CLOUDY    34  34 100 SW5       29.78S FOG     WCI  30
EDEN PRAIRIE   CLOUDY    36  34  92 S12       29.77S FOG
SOUTH ST PAUL  CLOUDY    36  34  90 S9        29.79S FOG
LAKE ELMO      CLOUDY    36  34  93 SW10      29.79S FOG
$$
MNZ001>005-007-008-013>017-022>024-027-028-221400-
   Northwest Minnesota

CITY           SKY/WX    TMP DP  RH WIND       PRES   REMARKS
BEMIDJI        SNOW      18  17  93 CALM      29.62S VSB 1/2
HALLOCK        CLOUDY    30  27  86 SE8       29.60F WCI  23
ROSEAU         CLOUDY    34  28  80 CALM      29.61R
WARROAD        CLOUDY    32  28  86 CALM      29.61R
THIEF RVR FALL CLEAR     23  21  93 S8        29.62S WCI  14
CROOKSTON      CLEAR     19  19 100 S7        29.63F WCI  10
FOSSTON        CLEAR     25  21  86 S7        29.64R WCI  17
DETROIT LAKES  CLEAR     27  27 100 S5        29.66S WCI  21
MOORHEAD       CLEAR     25  25 100 SE5       29.66S WCI  19
PARK RAPIDS    CLEAR     19  17  92 S7        29.65S FOG     WCI  10
MAHNOMEN       FAIR      25  23  91 S8        29.63S WCI  16
$$
MNZ006-009>011-018-025>026-221400-
   North Central Minnesota

CITY           SKY/WX    TMP DP  RH WIND       PRES   REMARKS
BAUDETTE       CLOUDY    31  27  85 SW6       29.60S WCI  25
FLAG ISLAND    CLOUDY    30  27  86 NW5       29.59S WCI  25
INTL FALLS     CLOUDY    31  26  82 SW5       29.60S WCI  26
WASKISH        CLOUDY    32  28  86 CALM      29.63R
BIG FORK       CLOUDY    30  27  86 S6        29.63F WCI  24
LONGVILLE      PTCLDY    25  25 100 CALM      29.65F
GRAND RAPIDS   PTCLDY    23  21  93 S5        29.65S WCI  17
CRANE LAKE     MOCLDY    27  25  93 CALM      29.64S
ORR            CLOUDY    28  25  86 CALM      29.61R
COOK           CLOUDY    28  27  93 SW6       29.64S FOG     WCI  22
WALKER         FAIR      26  24  92 SW5       29.63F WCI  20
$$
MNZ012-019>021-037-221400-
   Northeast Minnesota

CITY           SKY/WX    TMP DP  RH WIND       PRES   REMARKS
DULUTH         CLOUDY    29  25  85 SW12      29.67S FOG     WCI  19
ELY            CLOUDY    27  25  93 SW8       29.63S WCI  18
HIBBING        CLOUDY    24  21  88 CALM      29.66S FOG
EVELETH        CLOUDY    28  27  93 SW5       29.67S WCI  23
DULUTH HARBOR  MOCLDY    30  28  93 CALM      29.72R
TWO HARBORS    PTCLDY    25  19  80 CALM      29.67S HAZE
SILVER BAY     PTCLDY    23  21  93 SW3       29.66S FOG
GRAND MARAIS     N/A     32  27  81 W7        29.67S WCI  26
G MARAIS ARPRT CLOUDY    21  18  86 SW3       29.61R
$$
MNZ029>031-032-039>041-046>048-054>057-064-221400-
   West Central Minnesota

CITY           SKY/WX    TMP DP  RH WIND       PRES   REMARKS
FERGUS FALLS   CLEAR     23  21  93 SE7       29.70S WCI  15
WHEATON        CLEAR     27  23  86 S9        29.69S WCI  17
MORRIS         CLEAR     21  19  93 S8        29.69S FOG     WCI  12
ALEXANDRIA     CLEAR     26  23  88 S3        29.70R
ELBOW LAKE       N/A     23  22  95 SE7       29.68S WCI  15
WADENA           N/A     21  21 100 CALM      29.66S FOG
GLENWOOD       FOG       23  21  93 S3        29.70S VSB 1/2
APPLETON       CLEAR     27  25  93 SE3       29.71S
BENSON         CLEAR     23  21  93 S7        29.71S WCI  15
ORTONVILLE     CLEAR     21  19  93 SE6       29.69S WCI  14
MADISON        CLEAR     28  25  86 S7        29.70F WCI  21
WILLMAR        FAIR      25  21  86 CALM      29.74S FOG
$$
MNZ033>034-036-042>043-049>051-058-059-221400-
   Central Minnesota

CITY           SKY/WX    TMP DP  RH WIND       PRES   REMARKS
ST CLOUD       CLEAR     24  22  91 SE7       29.73S FOG     WCI  16
SAUK CENTRE    FAIR      25  24  96 S5        29.71S FOG     WCI  19
PAYNESVILLE    CLEAR     26  24  96 S5        29.73R WCI  20
AITKIN         PTCLDY    28  25  86 CALM      29.67S HAZE
PINE RIVER       N/A     18  18 100 CALM      29.71S FOG
BRAINERD       PTCLDY    24  23  96 S6        29.68F FOG     WCI  17
STAPLES        CLEAR     21  19  93 CALM      29.67S FOG
LONG PRAIRIE     N/A     19  18  93 S6        29.70S FOG     WCI  11
LITTLE FALLS   CLEAR     25  23  93 S5        29.71S FOG     WCI  19
LITCHFIELD     CLEAR     28  28 100 S3        29.74S FOG
BUFFALO        CLOUDY    32  31  95 S7        29.76S FOG     WCI  26
MAPLE LAKE     PTCLDY    31  30  96 S5        29.75S FOG     WCI  26
$$
MNZ037-044-045-052-053-221400-
   East Central Minnesota

CITY           SKY/WX    TMP DP  RH WIND       PRES   REMARKS
PRINCETON      PTCLDY    30  28  93 S7        29.74S FOG     WCI  23
MORA             N/A    N/A N/A N/A MISG        N/A
CAMBRIDGE      PTCLDY    32  27  80 S6        29.73S HAZE    WCI  26
RUSH CITY      CLOUDY    32  30  94 S6        29.75S WCI  26
MOOSE LAKE     MOCLDY    28  27  93 CALM      29.70R FOG
HINCKLEY       FAIR      28  27  93 CALM      29.73S FOG
CLOQUET        MOCLDY    28  27  93 SW8       29.68S FOG     WCI  20
MCGREGOR       PTCLDY    27  27 100 S5        29.69S WCI  21
$$
MNZ071>073-080-081-089-090-097-098-221400-
   Southwest Minnesota

CITY           SKY/WX    TMP DP  RH WIND       PRES   REMARKS
MONTEVIDEO     CLEAR     27  27 100 SW7       29.73S WCI  19
GRANITE FALLS  CLEAR     25  23  93 S7        29.74F WCI  17
CANBY          CLEAR     33  29  86 SW12      29.71F WCI  24
MARSHALL       CLEAR     30  27  86 SW16      29.72F WCI  19
REDWOOD FALLS  CLEAR     28  26  92 S6        29.75F FOG     WCI  22
OLIVIA         CLEAR     28  27  93 S8        29.74S FOG     WCI  20
PIPESTONE      FOG       30  28  93 S7        29.74S VSB 1/4 WCI  23
WINDOM         FOG       34  34 100 SW16      29.77S VSB 3/4 WCI  23
WORTHINGTON    CLOUDY    34  34 100 SW15G24   29.77S VSB 1/2 WCI  24
JACKSON        CLOUDY    34  32  93 SW22      29.78F FOG     WCI  22
TRACY          PTCLDY    32  32  99 SW18      29.74F FOG     WCI  20
SLAYTON        FOG       32  32 100 SW16      29.75S VSB 1/2 WCI  21
$$
MNZ065>067-074>077-082>085-091>093-221400-
   South Central Minnesota

CITY           SKY/WX    TMP DP  RH WIND       PRES   REMARKS
MANKATO        CLOUDY    36  30  80 S10       29.78F
NEW ULM          N/A     34  34 100 SW10      29.77F FOG     WCI  26
ST JAMES       CLOUDY    36  34  93 S8        29.79F FOG
FAIRMONT       CLOUDY    36  32  87 SW12      29.79F
GLENCOE        CLOUDY    35  34  99 S12       29.76S FOG     WCI  26
FARIBAULT      CLOUDY    36  34  93 S12       29.80F FOG
OWATONNA       CLOUDY    36  34  93 S13G18    29.81F FOG
WASECA         FOG       34  32  93 S15G21    29.81F VSB 1   WCI  24
ALBERT LEA     FOG       36  36 100 S10       29.81F VSB 3/4
$$
MNZ078>079-086>088-094>096-221400-
   Southeast Minnesota

CITY           SKY/WX    TMP DP  RH WIND       PRES   REMARKS
ROCHESTER      FOG       34  33  96 SW14      29.82F VSB 1/4 WCI  25
RED WING         N/A     36  34  93 SW3       29.81F FOG
STANTON        CLOUDY    36  33  91 SW8G16    29.79F FOG
DODGE CENTER   DRZL/FOG  34  34 100 SW14      29.80F VSB 1/2 WCI  24
WINONA         CLOUDY    36  34  93 CALM      29.86F FOG
AUSTIN         DRZL/FOG  34  34 100 S7        29.83F VSB 1/4 WCI  28
PRESTON        FOG       33  32  97 SW10      29.85F VSB 1/4 WCI  24
$$
ABBREVIATIONS USED IN REMARKS
   TC - TEMPERATURES IN CELSIUS
  WCI - WIND CHILL INDEX
   HX - HEAT INDEX
  VSB - VISIBILITY
$$


USA.gov is the U.S. government's official web portal to all federal, state and local government web resources and services.